Location: Newark
(39.5667°N, 8.9833°E)
Time: 14:05:50
(UTC+00:00)

LightSail 2 - Pass Details

Date: 24 September 2019
Orbit: 707 x 722 km, 24.0° (Epoch: 16 October)

Event Time Altitude Azimuth Distance (km) Brightness Sun altitude
Exits shadow 03:40:28 11° 192° (SSW) 2,116 7.3 -18.5°
Maximum altitude 03:42:08 12° 173° (S) 2,012 7.4 -18.2°
Drops below altitude 10° 03:44:07 10° 150° (SSE) 2,161 7.8 -17.8°
Sets 03:48:03 0° 120° (ESE) 3,082 9.1 -17.1°
